Tracking 19909 objects as of 22-Oct-2019
HD Live streaming from Space Station
objects crossing your sky now

IRIDIUM 33 DEB

Track IRIDIUM 33 DEB now!
10-day predictions


NORAD ID: 34690
Int'l Code: 1997-051KM
Perigee: 752.1 km
Apogee: 761.5 km
Inclination: 86.4 °
Period: 99.8 minutes
Semi major axis: 7127 km
RCS: 0.0122 m2 (small)
Launch date: September 14, 1997
Source: United States (US)
Launch site: TYURATAM MISSILE AND SPACE COMPLEX (TTMTR)

Note: This is SATELLITE DEBRIS
aabbcc
Your satellite tracking list
Your tracking list is empty




NASA's NSSDC Master Catalog

Two Line Element Set (TLE):
1 34690U 97051KM  19294.93483605 +.00000385 +00000-0 +10973-3 0  9996
2 34690 086.3825 276.7788 0006577 286.1372 134.7060 14.42678035556608
Source of the keplerian elements: AFSPC